Location: Rounton
(54.4000°N, 1.3500°W)
Time: 08:46:34
(UTC+00:00)

Vanguard 1 Rocket - Pass Details

Date: 08 December 2021
Orbit: 651 x 4224 km, 34.3° (Epoch: 19 January)

Event Time Altitude Azimuth Distance (km) Brightness Sun altitude
Rises 03:46:27 0° 243° (WSW) 4,738 - -37.2°
Reaches altitude 10° 03:49:26 10° 233° (SW) 4,139 - -36.8°
Exits shadow 03:56:08 30° 198° (SSW) 3,575 10.1 -35.8°
Maximum altitude 03:59:37 34° 174° (S) 3,771 10.3 -35.3°
Drops below altitude 10° 04:16:27 10° 121° (ESE) 6,832 12.4 -32.9°
Sets 04:23:22 0° 114° (ESE) 8,220 13.1 -31.9°
